Flag for Canada Weather past 2 weeks in Regina, Saskatchewan, Canada

Now
36 °F

Partly sunny.


Feels Like: 24 °F
Forecast: 21 / 31 °F
Wind: 22 mph from Northwest

Location: Regina Weather Station

Current Time: Mar 6, 2015 at 7:03:15 PM

Latest Report: Mar 6, 2015 at 6:00 PM


Visibility: 15 mi

Pressure: 30.05 "Hg

Humidity: 87%

Dew point: 32 °F

Location of ReginaLocation

Historic Weather in Regina — Graph

°F

Regina temperature yesterday

Maximum temperature yesterday: 28 °F (at 4:00 PM)
Minimum temperature yesterday: -13 °F (at 12:00 AM)
Average temperature yesterday: 4 °F

Past Weeks' High & Low Weather Summary

 TemperatureHumidityPressure
High37 °F (Mar 6, 2:00 PM)100% (Feb 19, 6:00 PM)30.87 "Hg (Feb 19, 6:00 PM)
Low-27 °F (Feb 22, 3:00 AM)59% (Mar 4, 4:00 PM)29.80 "Hg (Feb 20, 12:00 AM)
Average2 °F80%30.29 "Hg
* Reported Feb 19 6:00 PM — Mar 6 6:00 PM, Regina, Weather by CustomWeather, © 2015

Note: Actual official high and low records may vary slightly from our data, if they occured in-between our weather recording intervals... More about our weather records

Advertising

Regina weather history for previous 24 hours

 ConditionsComfort  
Time TempWeatherWind HumidityBarometerVisibility
6:00 PM
Fri, Mar 6
36 °FPartly sunny.22 mph87%30.05 "Hg15 mi
5:00 PM37 °FPartly sunny.28 mph81%30.00 "Hg15 mi
4:00 PM37 °FPartly sunny.26 mph81%29.98 "Hg15 mi
3:00 PM37 °FPartly sunny.20 mph81%29.96 "Hg15 mi
2:00 PM37 °FPartly sunny.20 mph81%29.96 "Hg15 mi
1:00 PM36 °FPassing clouds.17 mph75%29.97 "Hg15 mi
12:00 PM30 °FPartly sunny.9 mph86%29.99 "Hg15 mi
11:00 AM27 °FOvercast.10 mph86%30.03 "Hg15 mi
10:00 AM21 °FOvercast.9 mph86%30.05 "Hg15 mi
9:00 AM14 °FOvercast.9 mph92%30.06 "Hg15 mi
8:00 AM10 °FMostly cloudy.7 mph92%30.07 "Hg15 mi
7:00 AM10 °FOvercast.8 mph85%30.09 "Hg15 mi
6:00 AM9 °FOvercast.6 mph92%30.11 "Hg15 mi
5:00 AM7 °FPassing clouds.5 mph85%30.11 "Hg15 mi
4:00 AM7 °FPassing clouds.7 mph92%30.12 "Hg15 mi
3:00 AM10 °FPassing clouds.7 mph92%30.12 "Hg15 mi
2:00 AM7 °FClear.6 mph92%30.14 "Hg15 mi
1:00 AM7 °FClear.5 mph92%30.15 "Hg15 mi
12:00 AM10 °FClear.5 mph85%30.16 "Hg15 mi
11:00 PM
Thu, Mar 5
12 °FClear.8 mph85%30.16 "Hg15 mi
10:00 PM12 °FClear.10 mph92%30.15 "Hg15 mi
9:00 PM14 °FClear.12 mph92%30.14 "Hg15 mi
8:00 PM19 °FPassing clouds.13 mph86%30.13 "Hg15 mi
7:00 PM21 °FPassing clouds.9 mph80%30.11 "Hg15 mi
Weather by CustomWeather, © 2015

See weather overviewHow to use our weather pages